[[{"header":{"parameterUnit":"m.s-1","parameterCategory":1,"la1":30.2991,"la2":30.254,"lo1":-89.0895,"lo2":-89.0444,"dy":0.0017,"dx":0.0017,"nx":28,"ny":28,"refTime":"2024-08-28T21:00:00:Z","depth":0,"parameterNumber":2,"parameterNumberName":"U-component_of_WINDS"},"data":[0,0,0,0,0,0,0,0,0,0,0,0,0,0,0,0,0,0,0,0,0,0,0,0,0,0,0,0,0,0,0,0,0,0,0,0,0,0,0,0,0,0,0,0,0,0,0,0,0,0,0,0,0,0,0,0,0,0,-2.5972,-2.5972,0,-2.599,-2.599,-2.599,-2.5973,-2.5973,-2.5972,-2.5971,-2.5988,-2.5989,-2.599,0,0,0,0,0,0,0,0,0,0,0,0,0,-2.5922,-2.5923,-2.5972,-2.5972,-2.5973,-2.599,-2.599,-2.599,-2.5973,-2.5972,-2.5972,-2.5971,-2.5988,-2.5989,-2.599,0,0,0,0,0,0,0,0,0,0,0,0,0,-2.5942,-2.5923,-2.5972,-2.5966,-2.5966,-2.599,-2.599,-2.599,-2.5973,-2.5972,-2.5971,-2.597,-2.5987,-2.5989,-2.599,-2.6021,0,0,-2.5995,-2.5996,0,0,0,0,0,0,0,0,-2.5941,-2.5944,-2.5967,-2.5967,-2.5966,-2.5978,-2.5978,-2.6001,-2.5974,-2.5971,-2.5971,-2.597,-2.5985,-2.5987,-2.5993,-2.6021,-2.6022,-2.5995,-2.5996,-2.5997,-2.5998,0,0,0,0,0,0,0,-2.5939,-2.5943,-2.5979,-2.5967,-2.5967,-2.5962,-2.5964,-2.5983,-2.5983,-2.5971,-2.597,-2.5972,-2.5985,-2.5991,-2.5993,-2.6022,-2.5995,-2.5997,-2.5998,-2.5998,-2.6075,-2.6076,0,0,0,0,0,0,-2.5939,-2.5942,-2.5979,-2.598,-2.5951,-2.5964,-2.5966,-2.5976,-2.5983,-2.5983,-2.5973,-2.5971,-2.5989,-2.5991,-2.5993,-2.6028,-2.5997,-2.5999,-2.6,-2.6074,-2.6075,-2.6076,0,0,0,0,0,0,-2.5938,-2.5942,-2.5978,-2.596,-2.5965,-2.5966,-2.5977,-2.5976,-2.5982,-2.5985,-2.5985,-2.5979,-2.5988,-2.5991,-2.6014,-2.6028,-2.5999,-2.6001,-2.6073,-2.6074,-2.6076,-2.6098,0,0,0,0,0,0,-2.5937,-2.5942,-2.5954,-2.5961,-2.5966,-2.5998,-2.5978,-2.5977,-2.5985,-2.5983,-2.599,-2.5991,-2.5988,-2.6011,-2.6015,-2.603,-2.6002,-2.6071,-2.6073,-2.6075,-2.6096,-2.61,-2.6103,0,0,0,0,0,-2.5935,-2.596,-2.5955,-2.5959,-2.5981,-2.5999,-2.6002,-2.5998,-2.5987,-2.5998,-2.6,-2.599,-2.6026,-2.6014,-2.6018,-2.6033,-2.607,-2.6073,-2.6075,-2.6094,-2.6099,-2.6103,0,0,0,0,0,0,-2.5954,-2.596,-2.5955,-2.5983,-2.5991,-2.5996,-2.6011,-2.6004,-2.6015,-2.6013,-2.6007,-2.6009,-2.6032,-2.6035,-2.6021,-2.6062,-2.6046,-2.605,-2.6059,-2.6064,-2.6068,-2.6066,-2.6003,0,0,0,0,0,-2.5962,-2.5977,-2.5982,-2.6006,-2.601,-2.601,-2.6018,-2.6014,-2.6022,-2.6025,-2.6028,-2.6035,-2.6048,-2.6057,-2.6069,-2.6097,-2.6097,-2.6109,-2.6113,-2.6116,-2.6119,-2.6132,-2.6137,-2.6084,-2.6084,-2.6084,0,0,-2.5978,-2.5983,-2.5993,-2.601,-2.6015,-2.603,-2.6013,-2.6029,-2.604,-2.6027,-2.6048,-2.6051,-2.6059,-2.6084,-2.6095,-2.6087,-2.6133,-2.6119,-2.6122,-2.6122,-2.6135,-2.614,-2.6144,-2.6086,-2.6085,-2.6085,0,0,-2.6013,-2.602,-2.604,-2.6046,-2.6054,-2.6054,-2.6059,-2.6065,-2.6067,-2.6088,-2.6078,-2.6091,-2.6113,-2.6118,-2.6124,-2.6161,-2.6153,-2.6166,-2.6185,-2.6198,-2.6202,-2.6206,-2.6217,-2.6222,-2.6168,-2.6168,-2.6168,0,-2.6032,-2.6054,-2.6051,-2.6068,-2.6075,-2.6065,-2.6084,-2.609,-2.6102,-2.6107,-2.6098,-2.6125,-2.613,-2.6155,-2.6164,-2.617,-2.6174,-2.6164,-2.6202,-2.6206,-2.6209,-2.622,-2.6224,-2.617,-2.617,-2.6169,-2.6169,0,-2.6075,-2.6091,-2.6106,-2.6117,-2.6126,-2.6145,-2.6143,-2.6153,-2.6149,-2.6149,-2.617,-2.6175,-2.6187,-2.6193,-2.619,-2.6218,-2.6212,-2.6203,-2.6187,-2.6215,-2.6225,-2.623,-2.6172,-2.6171,-2.6171,-2.6171,0,0,-2.6123,-2.6132,-2.6138,-2.6142,-2.6151,-2.6162,-2.618,-2.6192,-2.6199,-2.6208,-2.6221,-2.6241,-2.6232,-2.6238,-2.6235,-2.6247,-2.6274,-2.6236,-2.6236,-2.6241,-2.6303,-2.6308,-2.6313,-2.6269,-2.627,-2.627,-2.6301,0,-2.6158,-2.6188,-2.6185,-2.6213,-2.6227,-2.6217,-2.6232,-2.6238,-2.6239,-2.625,-2.6251,-2.6264,-2.6252,-2.6256,-2.6267,-2.6268,-2.6286,-2.6266,-2.628,-2.628,-2.6276,-2.6319,-2.6325,-2.6354,-2.6305,-2.6306,-2.6307,0,-2.6202,-2.6212,-2.6241,-2.6246,-2.6252,-2.6265,-2.6275,-2.6287,-2.6293,-2.6293,-2.63,-2.6295,-2.6311,-2.6296,-2.6317,-2.6304,-2.631,-2.6311,-2.6312,-2.6311,-2.6294,-2.6318,-2.6363,-2.6367,-2.6313,-2.6313,-2.6312,0,-2.6231,-2.6252,-2.6272,-2.6276,-2.6284,-2.6293,-2.6296,-2.6302,-2.6309,-2.6318,-2.6322,-2.6333,-2.6339,-2.6347,-2.6344,-2.6333,-2.6366,-2.635,-2.6364,-2.6364,-2.637,-2.637,-2.6416,-2.6377,-2.6377,-2.6377,-2.6377,0,-2.6269,-2.6287,-2.6285,-2.6297,-2.6317,-2.6313,-2.6332,-2.6334,-2.634,-2.6351,-2.6344,-2.6355,-2.6351,-2.6362,-2.636,-2.6377,-2.638,-2.638,-2.6379,-2.6379,-2.6379,-2.6381,-2.6379,-2.6378,-2.6378,-2.6378,-2.6378,0,-2.6305,-2.6305,-2.6325,-2.633,-2.6332,-2.6346,-2.6349,-2.636,-2.6361,-2.6375,-2.6379,-2.6379,-2.6391,-2.6389,-2.6403,-2.6401,-2.6422,-2.642,-2.642,-2.6419,-2.6432,-2.643,-2.648,-2.6485,-2.6445,-2.6445,-2.6446,0,-2.6328,-2.6341,-2.6348,-2.6355,-2.6359,-2.6371,-2.6378,-2.6375,-2.6382,-2.639,-2.64,-2.6411,-2.642,-2.6439,-2.644,-2.645,-2.6447,-2.6464,-2.6448,-2.6448,-2.6445,-2.6443,-2.6444,-2.6466,-2.6467,-2.6467,-2.6467,0,-2.6369,-2.6368,-2.6378,-2.6388,-2.6397,-2.6404,-2.6411,-2.6418,-2.6415,-2.6424,-2.6436,-2.6443,-2.6456,-2.6467,-2.6476,-2.6479,-2.6472,-2.6472,-2.6476,-2.6476,-2.6474,-2.6473,-2.6426,-2.6471,-2.647,-2.647,-2.647,-2.647,-2.6398,-2.6408,-2.6414,-2.6425,-2.643,-2.6437,-2.6447,-2.6448,-2.6458,-2.6469,-2.6467,-2.648,-2.6485,-2.6497,-2.6501,-2.6511,-2.6504,-2.651,-2.6511,-2.6512,-2.6512,-2.6474,-2.6513,-2.6512,-2.6512,-2.6512,-2.6512,0,-2.6436,-2.6439,-2.645,-2.646,-2.6468,-2.6462,-2.6469,-2.6477,-2.6488,-2.6494,-2.6503,-2.6516,-2.6526,-2.6528,-2.6538,-2.6545,-2.6542,-2.6547,-2.6546,-2.6546,-2.6518,-2.6514,-2.655,-2.655,-2.655,-2.655,-2.6549,-2.6549,-2.6457,-2.6475,-2.6474,-2.6493,-2.6496,-2.6509,-2.6514,-2.6519,-2.6523,-2.6538,-2.6547,-2.6548,-2.6552,-2.6562,-2.657,-2.6571,-2.6574,-2.658,-2.6579,-2.6552,-2.6548,-2.6545,-2.654,-2.6581,-2.6581,-2.6606,-2.6606,-2.6606]},{"header":{"parameterUnit":"m.s-1","parameterCategory":1,"la1":30.2991,"la2":30.254,"lo1":-89.0895,"lo2":-89.0444,"dy":0.0017,"dx":0.0017,"nx":28,"ny":28,"refTime":"2024-08-28T21:00:00:Z","depth":0,"parameterNumber":3,"parameterNumberName":"V-component_of_WINDS"},"data":[0,0,0,0,0,0,0,0,0,0,0,0,0,0,0,0,0,0,0,0,0,0,0,0,0,0,0,0,0,0,0,0,0,0,0,0,0,0,0,0,0,0,0,0,0,0,0,0,0,0,0,0,0,0,0,0,0,0,1.8676,1.8677,0,1.8757,1.8758,1.8759,1.8749,1.8748,1.8747,1.8745,1.8826,1.883,1.8833,0,0,0,0,0,0,0,0,0,0,0,0,0,1.8509,1.8512,1.8676,1.8677,1.8678,1.8757,1.8758,1.8759,1.8749,1.8748,1.8746,1.8745,1.8825,1.8829,1.8833,0,0,0,0,0,0,0,0,0,0,0,0,0,1.8585,1.8513,1.8675,1.8682,1.8684,1.8757,1.8758,1.876,1.875,1.8748,1.8746,1.8744,1.8824,1.8829,1.8834,1.8905,0,0,1.8849,1.8852,0,0,0,0,0,0,0,0,1.8581,1.8591,1.868,1.8682,1.8684,1.8741,1.8729,1.8808,1.875,1.8725,1.8745,1.8743,1.8799,1.8806,1.8826,1.8908,1.8912,1.885,1.8853,1.8855,1.8857,0,0,0,0,0,0,0,1.8576,1.8588,1.8708,1.8682,1.8684,1.8681,1.8689,1.8744,1.8772,1.8727,1.8726,1.8736,1.88,1.8821,1.8828,1.8913,1.885,1.8854,1.8857,1.8859,1.9058,1.906,0,0,0,0,0,0,1.8569,1.8583,1.8705,1.871,1.8627,1.8685,1.8695,1.8725,1.8771,1.8777,1.8738,1.8735,1.8813,1.8822,1.8831,1.8917,1.8855,1.886,1.8863,1.9056,1.9059,1.9061,0,0,0,0,0,0,1.8565,1.858,1.8702,1.8647,1.8662,1.869,1.8724,1.8727,1.8748,1.878,1.8784,1.8754,1.8812,1.8823,1.8887,1.8919,1.8862,1.8867,1.9053,1.9057,1.906,1.9089,0,0,0,0,0,0,1.8561,1.8579,1.8606,1.8648,1.8665,1.8757,1.8726,1.873,1.8757,1.8755,1.8797,1.8801,1.8812,1.8879,1.8892,1.8925,1.8871,1.905,1.9055,1.9059,1.9086,1.9093,1.91,0,0,0,0,0,1.8555,1.861,1.8608,1.8622,1.87,1.8759,1.8769,1.878,1.876,1.8788,1.8808,1.88,1.8914,1.8886,1.89,1.8935,1.9048,1.9054,1.9058,1.9082,1.9092,1.91,0,0,0,0,0,0,1.8571,1.8616,1.8613,1.8684,1.8718,1.8757,1.8792,1.879,1.8829,1.8825,1.8837,1.8846,1.891,1.8929,1.8897,1.9007,1.8978,1.8986,1.8992,1.9001,1.9008,1.9002,1.8875,0,0,0,0,0,1.8583,1.8628,1.8664,1.8723,1.8741,1.8764,1.879,1.8796,1.8831,1.8845,1.8869,1.8903,1.8947,1.8975,1.9016,1.9089,1.9097,1.912,1.9127,1.9133,1.914,1.918,1.919,1.9078,1.9078,1.9077,0,0,1.8608,1.8638,1.8665,1.8727,1.8754,1.88,1.8776,1.8825,1.8859,1.8852,1.8913,1.8933,1.8971,1.9039,1.907,1.9057,1.9173,1.9139,1.9144,1.9147,1.9186,1.9197,1.9206,1.9081,1.908,1.908,0,0,1.8677,1.8704,1.8756,1.8784,1.8826,1.8841,1.8854,1.8894,1.8907,1.8969,1.8965,1.9005,1.908,1.9108,1.9131,1.9212,1.9206,1.9225,1.9263,1.9301,1.931,1.9318,1.9347,1.9357,1.9232,1.9232,1.9232,0,1.8702,1.8771,1.8783,1.8834,1.8861,1.8858,1.8911,1.8937,1.899,1.9009,1.8993,1.9088,1.9113,1.9188,1.9208,1.9227,1.9242,1.922,1.9308,1.9316,1.9324,1.9352,1.9362,1.9234,1.9234,1.9234,1.9233,0,1.88,1.8849,1.8886,1.8938,1.897,1.9021,1.9041,1.9071,1.9075,1.9091,1.9155,1.9186,1.9234,1.9252,1.9255,1.9328,1.9318,1.9306,1.9277,1.9336,1.9363,1.9373,1.9237,1.9236,1.9236,1.9235,0,0,1.888,1.894,1.8953,1.8977,1.9024,1.9061,1.9112,1.916,1.9186,1.9223,1.9266,1.933,1.9319,1.9346,1.9352,1.9387,1.9449,1.937,1.9371,1.9383,1.9531,1.954,1.9552,1.9446,1.9448,1.945,1.9528,0,1.8954,1.9045,1.9058,1.9139,1.9184,1.9182,1.9227,1.926,1.9277,1.9317,1.9336,1.9381,1.9363,1.938,1.9413,1.9434,1.9479,1.9429,1.9486,1.9488,1.9476,1.9566,1.9576,1.9648,1.9538,1.954,1.9541,0,1.9051,1.9092,1.9177,1.9218,1.9237,1.9277,1.9323,1.9362,1.9399,1.9409,1.9441,1.9443,1.9496,1.9466,1.9539,1.9505,1.9529,1.9543,1.9546,1.9552,1.9518,1.9574,1.9672,1.9682,1.9557,1.9556,1.9555,0,1.9101,1.9177,1.9238,1.9259,1.9308,1.9336,1.9358,1.9394,1.9422,1.9462,1.9481,1.9526,1.955,1.9585,1.96,1.9577,1.9672,1.9644,1.9682,1.9682,1.9702,1.97,1.9804,1.9718,1.9717,1.9717,1.9717,0,1.9181,1.9233,1.9262,1.9299,1.9358,1.9372,1.943,1.945,1.9482,1.9524,1.9525,1.9564,1.9581,1.9623,1.9634,1.9693,1.9704,1.9714,1.9716,1.9714,1.9713,1.9729,1.9725,1.972,1.972,1.9719,1.9718,0,1.9247,1.9268,1.9334,1.9376,1.9388,1.9429,1.9465,1.9501,1.9519,1.9571,1.9584,1.9611,1.966,1.9679,1.9738,1.9746,1.9814,1.9812,1.9802,1.9802,1.984,1.9836,1.9958,1.9975,1.9877,1.9878,1.9879,0,1.9296,1.9337,1.9383,1.9412,1.9435,1.948,1.951,1.9526,1.9556,1.9603,1.9633,1.9682,1.9722,1.9801,1.9825,1.9871,1.987,1.991,1.9877,1.9873,1.9871,1.9869,1.9873,1.9916,1.9917,1.9918,1.9918,0,1.9382,1.9391,1.9434,1.9481,1.9517,1.9554,1.959,1.9613,1.9635,1.9669,1.9719,1.9751,1.9812,1.9861,1.9908,1.9929,1.9928,1.9929,1.994,1.9938,1.993,1.9935,1.9818,1.9926,1.9925,1.9925,1.9924,1.9924,1.9442,1.9478,1.9517,1.9565,1.9594,1.9628,1.9665,1.9687,1.973,1.9782,1.9789,1.9843,1.988,1.9943,1.9967,2.001,1.9999,2.0016,2.002,2.0024,2.0026,1.9924,2.0019,2.0018,2.0018,2.0018,2.0018,0,1.9528,1.9553,1.9597,1.9649,1.9687,1.9683,1.9723,1.9755,1.9803,1.9838,1.9878,1.9936,1.9984,2.0013,2.0061,2.0089,2.009,2.0101,2.0099,2.0104,2.0033,2.0019,2.01,2.01,2.01,2.01,2.01,2.01,1.9577,1.9639,1.9652,1.9728,1.9753,1.9807,1.983,1.9862,1.989,1.9956,1.9996,2.0015,2.0048,2.0098,2.0141,2.0149,2.0166,2.0179,2.0185,2.0118,2.0109,2.0101,2.0088,2.0182,2.0183,2.0253,2.0254,2.0254]}]]